Location: Pl�tzky
(52.0521°N, 11.8020°E)
Time: 01:07:01
(UTC+00:00)

USA 229 - Pass Details

Date: 27 February 2020
Orbit: 986 x 1226 km, 63.4° (Epoch: 26 March)

Event Time Altitude Azimuth Distance (km) Brightness Sun altitude
Rises 19:09:24 0° 266° (W) 3,770 7.8 -22.4°
Reaches altitude 10° 19:12:10 10° 275° (W) 2,848 7.0 -22.8°
Maximum altitude 19:18:24 38° 342° (NNW) 1,592 4.8 -23.7°
Enters shadow 19:23:46 15° 45° (NE) 2,631 5.5 -24.5°
